Location: Eschentzwiller
(47.7125°N, 7.3981°E)
Time: 22:26:14
(UTC+00:00)

Meteor 2-10 Rocket - Visible Passes

Search period start: 01 March 2021 00:00
Search period end: 11 March 2021 00:00
Orbit: 733 x 885 km, 81.2° (Epoch: 01 March)

Date Brightness Start Highest point End Pass type
(mag) Time Alt. Az. Time Alt. Az. Time Alt. Az.
01 Mar 6.2 02:05:53 13° N 02:05:53 13° N 02:06:25 10° N visible
02 Mar 6.3 01:41:45 12° NNE 01:41:45 12° NNE 01:42:01 10° NNE visible
03 Mar 6.0 02:58:44 11° NNW 02:58:44 11° NNW 02:58:55 10° NNW visible
04 Mar 6.1 02:34:34 11° N 02:34:34 11° N 02:34:52 10° N visible
05 Mar 6.2 02:10:24 12° N 02:10:24 12° N 02:10:43 10° N visible
06 Mar 6.3 01:46:14 11° N 01:46:14 11° N 01:46:28 10° N visible
07 Mar 6.4 01:22:02 11° N 01:22:02 11° N 01:22:10 10° N visible
10 Mar 6.3 01:50:33 10° N 01:50:33 10° N 01:50:34 10° N visible
